User: anonymous   Login
Location: Ostrava
(49.8330°N, 18.2830°E)
Time: 06:21:02
(UTC+02:00)
Language:

Lacrosse 5 - Orbit

View from above orbital plane
View from above orbital plane
View from above satellite
View from above satellite

Ground track
Ground track

The orbit data is extracted from the following two-line orbital elements,

1 28646U 05016A   15215.93668982 0.00000000  00000-0  00000-0 0    06
2 28646  57.0110 155.9998 0006000  76.3185 283.6815 14.52102732    04
Epoch (UTC): 03 August 2015 22:28:50
Eccentricity: 0.0006000
inclination: 57.0110°
perigee height: 714 km
apogee height: 723 km
right ascension of ascending node: 155.9998°
argument of perigee: 76.3185°
revolutions per day: 14.52102732
mean anomaly at epoch: 283.6815°
orbit number at epoch: 0

The dashed part of the orbit path shows where the satellite is in the earth's shadow,  

DLR